Hourly Weather Alimos

Today, 2 December, Wednesday

Time Temperature Precipitation Wind Pressure Humidity
00:00 +11°C° 0 mm 4 mps 762 mmHg 77%
01:00 +10°C° 0 mm 4 mps 761 mmHg 79%
02:00 +10°C° 0 mm 3 mps 761 mmHg 79%
03:00 +10°C° 0 mm 3 mps 761 mmHg 79%
04:00 +10°C° 0 mm 3 mps 761 mmHg 80%
05:00 +9°C° 0 mm 3 mps 761 mmHg 81%
06:00 +10°C° 0 mm 3 mps 762 mmHg 81%
07:00 +10°C° 0 mm 3 mps 762 mmHg 80%
08:00 +10°C° 0 mm 3 mps 762 mmHg 79%
09:00 +11°C° 0 mm 3 mps 762 mmHg 75%
10:00 +12°C° 0 mm 3 mps 762 mmHg 71%
11:00 +13°C° 0 mm 2 mps 763 mmHg 67%
12:00 +14°C° 0 mm 2 mps 762 mmHg 65%
13:00 +14°C° 0 mm 2 mps 762 mmHg 64%
14:00 +15°C° 0 mm 2 mps 762 mmHg 62%
15:00 +13°C° 0 mm 3 mps 762 mmHg 64%
16:00 +13°C° 0 mm 3 mps 762 mmHg 66%
17:00 +12°C° 0 mm 3 mps 762 mmHg 69%
18:00 +12°C° 0 mm 3 mps 762 mmHg 71%
19:00 +12°C° 0 mm 3 mps 762 mmHg 73%
20:00 +11°C° 0 mm 3 mps 762 mmHg 76%
21:00 +11°C° 0 mm 3 mps 762 mmHg 76%
22:00 +11°C° 0 mm 3 mps 763 mmHg 77%
23:00 +12°C° 0 mm 2 mps 763 mmHg 77%

Tomorrow, 3 December, Thursday

Time Temperature Precipitation Wind Pressure Humidity
00:00 +12°C° 0 mm 2 mps 762 mmHg 78%
01:00 +10°C° 0 mm 2 mps 762 mmHg 79%
02:00 +10°C° 0 mm 2 mps 762 mmHg 80%
03:00 +10°C° 0 mm 2 mps 762 mmHg 81%
04:00 +10°C° 0 mm 2 mps 762 mmHg 81%
05:00 +10°C° 0 mm 2 mps 761 mmHg 81%
06:00 +10°C° 0 mm 2 mps 761 mmHg 81%
07:00 +10°C° 0 mm 2 mps 761 mmHg 81%
08:00 +10°C° 0 mm 2 mps 761 mmHg 81%
09:00 +12°C° 0 mm 2 mps 761 mmHg 76%
10:00 +13°C° 0 mm 2 mps 761 mmHg 71%
11:00 +14°C° 0 mm 2 mps 761 mmHg 66%
12:00 +15°C° 0 mm 2 mps 761 mmHg 64%
13:00 +15°C° 0 mm 2 mps 760 mmHg 62%
14:00 +16°C° 0 mm 2 mps 760 mmHg 60%
15:00 +15°C° 0 mm 2 mps 759 mmHg 63%
16:00 +15°C° 0 mm 2 mps 759 mmHg 65%
17:00 +14°C° 0 mm 2 mps 759 mmHg 68%
18:00 +14°C° 0 mm 2 mps 759 mmHg 70%
19:00 +14°C° 0 mm 2 mps 758 mmHg 71%
20:00 +13°C° 0 mm 2 mps 758 mmHg 73%
21:00 +13°C° 0 mm 2 mps 758 mmHg 74%
22:00 +13°C° 0 mm 2 mps 758 mmHg 74%
23:00 +13°C° 0 mm 2 mps 758 mmHg 74%

Day after tomorrow, 4 December, Friday

Time Temperature Precipitation Wind Pressure Humidity
00:00 +13°C° 0 mm 2 mps 757 mmHg 75%
01:00 +14°C° 0 mm 2 mps 756 mmHg 76%
02:00 +13°C° 0 mm 3 mps 756 mmHg 76%
03:00 +14°C° 0.1 mm 2 mps 755 mmHg 79%
04:00 +14°C° 0.1 mm 2 mps 755 mmHg 82%
05:00 +14°C° 0.1 mm 2 mps 755 mmHg 85%
06:00 +14°C° 0.2 mm 2 mps 754 mmHg 85%
07:00 +13°C° 0.2 mm 3 mps 754 mmHg 85%
08:00 +13°C° 0.2 mm 3 mps 754 mmHg 86%
09:00 +15°C° 0.4 mm 4 mps 754 mmHg 80%
10:00 +16°C° 0.4 mm 6 mps 755 mmHg 74%
11:00 +18°C° 0.4 mm 7 mps 755 mmHg 68%
12:00 +18°C° 0.4 mm 7 mps 754 mmHg 67%
13:00 +18°C° 0.4 mm 7 mps 754 mmHg 66%
14:00 +18°C° 0.4 mm 7 mps 754 mmHg 65%
15:00 +17°C° 0.5 mm 7 mps 754 mmHg 68%
16:00 +17°C° 0.5 mm 6 mps 754 mmHg 71%
17:00 +16°C° 0.5 mm 5 mps 754 mmHg 73%
18:00 +16°C° 0.1 mm 5 mps 755 mmHg 75%
19:00 +15°C° 0.1 mm 4 mps 755 mmHg 76%
20:00 +16°C° 0.1 mm 3 mps 756 mmHg 78%
21:00 +16°C° 0 mm 3 mps 756 mmHg 79%
22:00 +14°C° 0 mm 3 mps 756 mmHg 79%
23:00 +15°C° 0 mm 2 mps 756 mmHg 80%

5 December, Saturday

Time Temperature Precipitation Wind Pressure Humidity
00:00 +15°C° 0 mm 2 mps 756 mmHg 80%
01:00 +14°C° 0 mm 2 mps 757 mmHg 80%
02:00 +14°C° 0 mm 2 mps 757 mmHg 80%
03:00 +14°C° 0 mm 1 mps 757 mmHg 80%
04:00 +13°C° 0 mm 1 mps 757 mmHg 80%
05:00 +13°C° 0 mm 1 mps 757 mmHg 79%
06:00 +13°C° 0 mm 1 mps 757 mmHg 79%
07:00 +13°C° 0 mm 1 mps 757 mmHg 78%
08:00 +13°C° 0 mm 1 mps 758 mmHg 78%
09:00 +15°C° 0 mm 1 mps 758 mmHg 73%
10:00 +16°C° 0 mm 1 mps 758 mmHg 68%
11:00 +18°C° 0 mm 1 mps 758 mmHg 63%
12:00 +18°C° 0 mm 2 mps 758 mmHg 61%
13:00 +18°C° 0 mm 2 mps 758 mmHg 60%
14:00 +19°C° 0 mm 3 mps 757 mmHg 58%
15:00 +18°C° 0 mm 3 mps 757 mmHg 63%
16:00 +17°C° 0 mm 3 mps 758 mmHg 68%
17:00 +17°C° 0 mm 3 mps 758 mmHg 73%
18:00 +16°C° 0 mm 3 mps 758 mmHg 75%
19:00 +16°C° 0 mm 3 mps 758 mmHg 77%
20:00 +16°C° 0 mm 3 mps 758 mmHg 80%
21:00 +14°C° 0 mm 3 mps 758 mmHg 80%
22:00 +14°C° 0 mm 3 mps 758 mmHg 81%
23:00 +14°C° 0 mm 3 mps 758 mmHg 82%

6 December, Sunday

Time Temperature Precipitation Wind Pressure Humidity
00:00 +14°C° 0 mm 3 mps 758 mmHg 82%
01:00 +14°C° 0 mm 3 mps 758 mmHg 83%
02:00 +14°C° 0 mm 3 mps 758 mmHg 83%
03:00 +14°C° 0 mm 3 mps 758 mmHg 84%
04:00 +14°C° 0 mm 3 mps 758 mmHg 85%
05:00 +14°C° 0 mm 3 mps 757 mmHg 85%
06:00 +14°C° 0 mm 3 mps 757 mmHg 86%
07:00 +14°C° 0 mm 3 mps 757 mmHg 87%
08:00 +14°C° 0 mm 3 mps 757 mmHg 87%
09:00 +17°C° 0 mm 4 mps 757 mmHg 82%
10:00 +18°C° 0 mm 4 mps 757 mmHg 76%
11:00 +19°C° 0 mm 5 mps 757 mmHg 70%
12:00 +20°C° 0 mm 5 mps 756 mmHg 68%
13:00 +20°C° 0 mm 6 mps 756 mmHg 66%
14:00 +20°C° 0 mm 6 mps 756 mmHg 64%
15:00 +20°C° 0.1 mm 6 mps 755 mmHg 67%
16:00 +19°C° 0.1 mm 5 mps 755 mmHg 71%
17:00 +19°C° 0.1 mm 5 mps 755 mmHg 75%
18:00 +19°C° 0.1 mm 5 mps 755 mmHg 76%
19:00 +17°C° 0.1 mm 6 mps 755 mmHg 78%
20:00 +17°C° 0.1 mm 6 mps 755 mmHg 79%
21:00 +17°C° 0.1 mm 6 mps 755 mmHg 78%
22:00 +17°C° 0.1 mm 6 mps 755 mmHg 77%
23:00 +17°C° 0.1 mm 6 mps 755 mmHg 77%

7 December, Monday

Time Temperature Precipitation Wind Pressure Humidity
00:00 +17°C° 0.1 mm 6 mps 754 mmHg 77%
01:00 +17°C° 0.1 mm 7 mps 754 mmHg 77%
02:00 +17°C° 0.1 mm 7 mps 754 mmHg 78%
03:00 +17°C° 0.2 mm 7 mps 754 mmHg 76%
04:00 +17°C° 0.2 mm 8 mps 754 mmHg 74%
05:00 +17°C° 0.2 mm 9 mps 753 mmHg 73%
06:00 +17°C° 0.5 mm 9 mps 753 mmHg 73%
07:00 +17°C° 0.5 mm 9 mps 753 mmHg 74%
08:00 +17°C° 0.5 mm 9 mps 753 mmHg 75%
09:00 +17°C° 0.8 mm 9 mps 753 mmHg 74%
10:00 +18°C° 0.8 mm 8 mps 753 mmHg 73%
11:00 +18°C° 0.8 mm 8 mps 754 mmHg 72%
12:00 +18°C° 0.3 mm 7 mps 753 mmHg 70%
13:00 +19°C° 0.3 mm 6 mps 753 mmHg 67%
14:00 +19°C° 0.3 mm 5 mps 753 mmHg 64%
15:00 +18°C° 0.1 mm 4 mps 753 mmHg 65%
16:00 +18°C° 0.1 mm 4 mps 753 mmHg 66%
17:00 +17°C° 0.1 mm 4 mps 753 mmHg 67%
18:00 +15°C° 0 mm 4 mps 753 mmHg 67%
19:00 +15°C° 0 mm 4 mps 754 mmHg 66%
20:00 +14°C° 0 mm 5 mps 754 mmHg 65%
21:00 +14°C° 0 mm 5 mps 754 mmHg 66%
22:00 +14°C° 0 mm 4 mps 755 mmHg 68%
23:00 +13°C° 0 mm 4 mps 755 mmHg 69%
Show more